Time,TemperatureF,DewpointF,PressureIn,WindDirection,WindDirectionDegrees,WindSpeedMPH,WindSpeedGustMPH,Humidity,HourlyPrecipIn,Conditions,Clouds,dailyrainin,SoftwareType,DateUTC
2013-06-14 00:02:00,45.0,44.0,30.09,WNW,284,0.0,0.0,96,0.00,,,0.00,,2013-06-14 05:02:00,
2013-06-14 00:11:00,44.0,43.0,30.09,WNW,284,0.0,0.0,96,0.00,,,0.00,,2013-06-14 05:11:00,
2013-06-14 00:22:00,44.0,43.0,30.09,WNW,284,0.0,0.0,97,0.00,,,0.00,,2013-06-14 05:22:00,
2013-06-14 00:34:00,44.0,43.0,30.09,WNW,284,0.0,0.0,97,0.00,,,0.00,,2013-06-14 05:34:00,
2013-06-14 00:43:00,44.0,43.0,30.09,WNW,284,0.0,0.0,97,0.00,,,0.00,,2013-06-14 05:43:00,
2013-06-14 00:52:00,44.0,43.0,30.09,WNW,284,0.0,0.0,97,0.00,,,0.00,,2013-06-14 05:52:00,
2013-06-14 01:02:00,44.0,43.0,30.09,WNW,284,0.0,0.0,97,0.00,,,0.00,,2013-06-14 06:02:00,
2013-06-14 01:12:00,44.0,43.0,30.09,WNW,284,0.0,0.0,97,0.00,,,0.00,,2013-06-14 06:12:00,
2013-06-14 01:22:00,44.0,43.0,30.09,SSW,200,0.0,0.0,97,0.00,,,0.00,,2013-06-14 06:22:00,
2013-06-14 01:33:00,44.0,43.0,30.09,SSW,200,0.0,0.0,97,0.00,,,0.00,,2013-06-14 06:33:00,
2013-06-14 01:43:00,43.0,42.0,30.09,SSW,200,0.0,0.0,97,0.00,,,0.00,,2013-06-14 06:43:00,
2013-06-14 01:52:00,43.0,42.0,30.09,SSW,200,0.0,0.0,98,0.00,,,0.00,,2013-06-14 06:52:00,
2013-06-14 02:02:00,43.0,42.0,30.09,SSW,200,0.0,0.0,98,0.00,,,0.00,,2013-06-14 07:02:00,
2013-06-14 02:12:00,43.0,42.0,30.10,SSW,200,0.0,0.0,97,0.00,,,0.00,,2013-06-14 07:12:00,
2013-06-14 02:22:00,42.0,41.0,30.10,SSW,200,0.0,0.0,97,0.00,,,0.00,,2013-06-14 07:22:00,
2013-06-14 02:33:00,42.0,41.0,30.10,SSW,200,0.0,0.0,97,0.00,,,0.00,,2013-06-14 07:33:00,
2013-06-14 02:43:00,41.0,40.0,30.09,SSW,198,0.0,0.0,97,0.00,,,0.00,,2013-06-14 07:43:00,
2013-06-14 02:53:00,41.0,40.0,30.09,SSW,198,0.0,0.0,97,0.00,,,0.00,,2013-06-14 07:53:00,
2013-06-14 03:02:00,41.0,40.0,30.09,SSW,198,0.0,0.0,97,0.00,,,0.00,,2013-06-14 08:02:00,
2013-06-14 03:12:00,41.0,40.0,30.09,SSW,198,0.0,0.0,97,0.00,,,0.00,,2013-06-14 08:12:00,
2013-06-14 03:23:00,40.0,39.0,30.09,SSW,199,0.0,0.0,97,0.00,,,0.00,,2013-06-14 08:23:00,
2013-06-14 03:33:00,40.0,39.0,30.09,SSW,199,0.0,0.0,97,0.00,,,0.00,,2013-06-14 08:33:00,
2013-06-14 03:43:00,40.0,39.0,30.10,SSW,198,0.0,0.0,98,0.00,,,0.00,,2013-06-14 08:43:00,
2013-06-14 03:53:00,39.0,38.0,30.09,SSW,198,0.0,0.0,97,0.00,,,0.00,,2013-06-14 08:53:00,
2013-06-14 04:02:00,39.0,38.0,30.09,SSW,198,0.0,0.0,97,0.00,,,0.00,,2013-06-14 09:02:00,
2013-06-14 04:12:00,39.0,38.0,30.10,SSW,198,0.0,0.0,97,0.00,,,0.00,,2013-06-14 09:12:00,
2013-06-14 04:22:00,38.0,37.0,30.11,SSW,198,0.0,0.0,97,0.00,,,0.00,,2013-06-14 09:22:00,
2013-06-14 04:33:00,38.0,37.0,30.11,SSW,198,0.0,0.0,97,0.00,,,0.00,,2013-06-14 09:33:00,
2013-06-14 05:11:00,37.0,36.0,30.12,SSW,198,0.0,0.0,98,0.00,,,0.00,,2013-06-14 10:11:00,
2013-06-14 05:43:00,36.0,35.0,30.13,SSW,198,0.0,0.0,98,0.00,,,0.00,,2013-06-14 10:43:00,
2013-06-14 05:52:00,36.0,35.0,30.13,SSW,198,0.0,0.0,98,0.00,,,0.00,,2013-06-14 10:52:00,
2013-06-14 06:02:00,36.0,35.0,30.13,SSW,198,0.0,0.0,98,0.00,,,0.00,,2013-06-14 11:02:00,
2013-06-14 06:11:00,36.0,35.0,30.14,SSW,198,0.0,0.0,98,0.00,,,0.00,,2013-06-14 11:11:00,
2013-06-14 06:22:00,37.0,36.0,30.14,SSW,198,0.0,0.0,98,0.00,,,0.00,,2013-06-14 11:22:00,
2013-06-14 06:32:00,37.0,36.0,30.14,SSW,198,0.0,0.0,98,0.00,,,0.00,,2013-06-14 11:32:00,
2013-06-14 06:43:00,38.0,37.0,30.14,SSW,198,0.0,0.0,98,0.00,,,0.00,,2013-06-14 11:43:00,
2013-06-14 06:52:00,39.0,39.0,30.14,SSW,198,0.0,0.0,99,0.00,,,0.00,,2013-06-14 11:52:00,
2013-06-14 07:02:00,39.0,39.0,30.14,SSW,198,0.0,0.0,99,0.00,,,0.00,,2013-06-14 12:02:00,
2013-06-14 07:12:00,41.0,41.0,30.14,SSW,198,0.0,0.0,99,0.00,,,0.00,,2013-06-14 12:12:00,
2013-06-14 07:22:00,43.0,43.0,30.14,SSW,198,0.0,0.0,99,0.00,,,0.00,,2013-06-14 12:22:00,
2013-06-14 07:33:00,43.0,43.0,30.14,SSW,198,0.0,0.0,99,0.00,,,0.00,,2013-06-14 12:33:00,
2013-06-14 07:43:00,45.0,45.0,30.15,SSW,198,0.0,0.0,99,0.00,,,0.00,,2013-06-14 12:43:00,
2013-06-14 07:52:00,47.0,47.0,30.15,SSW,198,0.0,0.0,99,0.00,,,0.00,,2013-06-14 12:52:00,
2013-06-14 08:02:00,47.0,47.0,30.15,SSW,198,0.0,0.0,99,0.00,,,0.00,,2013-06-14 13:02:00,
2013-06-14 08:11:00,49.0,49.0,30.15,SE,139,0.0,0.0,99,0.00,,,0.00,,2013-06-14 13:11:00,
2013-06-14 08:22:00,50.0,50.0,30.15,SE,134,0.0,1.0,99,0.00,,,0.00,,2013-06-14 13:22:00,
2013-06-14 08:33:00,50.0,50.0,30.15,SE,134,0.0,1.0,99,0.00,,,0.00,,2013-06-14 13:33:00,
2013-06-14 08:43:00,54.0,46.0,30.15,SE,142,0.0,1.0,75,0.00,,,0.00,,2013-06-14 13:43:00,
2013-06-14 08:53:00,59.0,48.0,30.15,SE,139,0.0,1.0,68,0.00,,,0.00,,2013-06-14 13:53:00,
2013-06-14 09:02:00,59.0,48.0,30.15,SE,139,0.0,1.0,68,0.00,,,0.00,,2013-06-14 14:02:00,
2013-06-14 09:11:00,62.0,47.0,30.15,SW,221,0.0,1.0,57,0.00,,,0.00,,2013-06-14 14:11:00,
2013-06-14 09:22:00,64.0,45.0,30.15,South,169,1.0,3.0,50,0.00,,,0.00,,2013-06-14 14:22:00,
2013-06-14 09:34:00,64.0,45.0,30.15,South,169,1.0,3.0,50,0.00,,,0.00,,2013-06-14 14:34:00,
2013-06-14 09:43:00,66.0,47.0,30.14,WSW,242,0.0,2.0,50,0.00,,,0.00,,2013-06-14 14:43:00,
2013-06-14 09:52:00,67.0,43.0,30.14,ESE,103,0.0,3.0,42,0.00,,,0.00,,2013-06-14 14:52:00,
2013-06-14 10:01:00,67.0,43.0,30.14,ESE,103,0.0,3.0,42,0.00,,,0.00,,2013-06-14 15:01:00,
2013-06-14 10:11:00,67.0,44.0,30.14,SSE,152,1.0,2.0,43,0.00,,,0.00,,2013-06-14 15:11:00,
2013-06-14 10:23:00,68.0,44.0,30.14,East,95,0.0,3.0,42,0.00,,,0.00,,2013-06-14 15:23:00,
2013-06-14 10:33:00,68.0,44.0,30.14,East,95,0.0,3.0,42,0.00,,,0.00,,2013-06-14 15:33:00,
2013-06-14 10:44:00,69.0,48.0,30.12,ESE,118,0.0,3.0,47,0.00,,,0.00,,2013-06-14 15:44:00,
2013-06-14 10:52:00,70.0,44.0,30.11,South,181,0.0,5.0,39,0.00,,,0.00,,2013-06-14 15:52:00,
2013-06-14 11:01:00,70.0,44.0,30.11,South,181,0.0,5.0,39,0.00,,,0.00,,2013-06-14 16:01:00,
2013-06-14 11:11:00,71.0,45.0,30.12,ENE,69,0.0,3.0,39,0.00,,,0.00,,2013-06-14 16:11:00,
2013-06-14 11:22:00,71.0,43.0,30.11,SSE,158,0.0,3.0,37,0.00,,,0.00,,2013-06-14 16:22:00,
2013-06-14 11:33:00,71.0,43.0,30.11,SSE,158,0.0,3.0,37,0.00,,,0.00,,2013-06-14 16:33:00,
2013-06-14 11:43:00,71.0,43.0,30.11,ENE,61,1.0,5.0,37,0.00,,,0.00,,2013-06-14 16:43:00,
2013-06-14 11:52:00,72.0,38.0,30.11,SSE,150,0.0,4.0,29,0.00,,,0.00,,2013-06-14 16:52:00,
2013-06-14 12:02:00,72.0,38.0,30.11,SSE,150,0.0,4.0,29,0.00,,,0.00,,2013-06-14 17:02:00,
2013-06-14 12:11:00,72.0,41.0,30.10,ESE,115,1.0,3.0,33,0.00,,,0.00,,2013-06-14 17:11:00,
2013-06-14 12:22:00,72.0,42.0,30.09,ESE,115,0.0,3.0,34,0.00,,,0.00,,2013-06-14 17:22:00,
2013-06-14 12:34:00,72.0,42.0,30.09,ESE,115,0.0,3.0,34,0.00,,,0.00,,2013-06-14 17:34:00,
2013-06-14 12:43:00,74.0,41.0,30.09,ENE,78,0.0,2.0,30,0.00,,,0.00,,2013-06-14 17:43:00,
2013-06-14 12:53:00,75.0,43.0,30.08,East,99,0.0,3.0,32,0.00,,,0.00,,2013-06-14 17:53:00,
2013-06-14 13:02:00,75.0,43.0,30.08,East,99,0.0,3.0,32,0.00,,,0.00,,2013-06-14 18:02:00,
2013-06-14 13:22:00,75.0,41.0,30.07,ESE,108,1.0,5.0,30,0.00,,,0.00,,2013-06-14 18:22:00,
2013-06-14 13:32:00,75.0,41.0,30.07,ESE,108,1.0,5.0,30,0.00,,,0.00,,2013-06-14 18:32:00,
2013-06-14 13:52:00,76.0,42.0,30.06,ESE,102,0.0,3.0,30,0.00,,,0.00,,2013-06-14 18:52:00,
2013-06-14 14:01:00,76.0,42.0,30.06,ESE,102,0.0,3.0,30,0.00,,,0.00,,2013-06-14 19:01:00,
2013-06-14 14:11:00,76.0,42.0,30.06,SSW,204,0.0,3.0,30,0.00,,,0.00,,2013-06-14 19:11:00,
2013-06-14 14:22:00,76.0,42.0,30.06,SSW,204,0.0,3.0,30,0.00,,,0.00,,2013-06-14 19:22:00,
2013-06-14 14:32:00,77.0,41.0,30.05,NNW,327,0.0,3.0,28,0.00,,,0.00,,2013-06-14 19:32:00,
2013-06-14 14:43:00,76.0,41.0,30.05,NE,53,1.0,4.0,28,0.00,,,0.00,,2013-06-14 19:43:00,
2013-06-14 14:53:00,76.0,41.0,30.05,NE,53,1.0,4.0,28,0.00,,,0.00,,2013-06-14 19:53:00,
2013-06-14 15:02:00,76.0,40.0,30.05,NW,322,1.0,5.0,27,0.00,,,0.00,,2013-06-14 20:02:00,
2013-06-14 15:11:00,77.0,43.0,30.04,SSW,193,0.0,4.0,30,0.00,,,0.00,,2013-06-14 20:11:00,
2013-06-14 15:22:00,77.0,43.0,30.04,SSW,193,0.0,4.0,30,0.00,,,0.00,,2013-06-14 20:22:00,
2013-06-14 15:33:00,76.0,43.0,30.04,North,5,0.0,3.0,31,0.00,,,0.00,,2013-06-14 20:33:00,
2013-06-14 15:43:00,76.0,41.0,30.03,SE,128,0.0,5.0,28,0.00,,,0.00,,2013-06-14 20:43:00,
2013-06-14 15:53:00,76.0,41.0,30.03,SE,128,0.0,5.0,28,0.00,,,0.00,,2013-06-14 20:53:00,
2013-06-14 16:02:00,77.0,38.0,30.03,West,278,0.0,6.0,25,0.00,,,0.00,,2013-06-14 21:02:00,
2013-06-14 16:11:00,78.0,40.0,30.02,WSW,253,0.0,2.0,26,0.00,,,0.00,,2013-06-14 21:11:00,
2013-06-14 16:22:00,78.0,40.0,30.02,WSW,253,0.0,2.0,26,0.00,,,0.00,,2013-06-14 21:22:00,
2013-06-14 16:34:00,78.0,40.0,30.02,ESE,102,0.0,3.0,26,0.00,,,0.00,,2013-06-14 21:34:00,
2013-06-14 17:01:00,76.0,45.0,30.01,East,84,0.0,6.0,33,0.00,,,0.00,,2013-06-14 22:01:00,
2013-06-14 17:11:00,77.0,43.0,30.00,East,82,0.0,2.0,30,0.00,,,0.00,,2013-06-14 22:11:00,
2013-06-14 17:22:00,77.0,43.0,30.00,East,82,0.0,2.0,30,0.00,,,0.00,,2013-06-14 22:22:00,
2013-06-14 17:33:00,77.0,42.0,29.99,NE,51,0.0,2.0,29,0.00,,,0.00,,2013-06-14 22:33:00,
2013-06-14 17:43:00,77.0,41.0,29.98,NE,56,0.0,2.0,28,0.00,,,0.00,,2013-06-14 22:43:00,
2013-06-14 17:53:00,77.0,41.0,29.98,NE,56,0.0,2.0,28,0.00,,,0.00,,2013-06-14 22:53:00,
2013-06-14 18:02:00,76.0,44.0,29.98,East,88,0.0,1.0,32,0.00,,,0.00,,2013-06-14 23:02:00,
2013-06-14 18:33:00,71.0,47.0,29.98,SSE,152,0.0,0.0,43,0.00,,,0.00,,2013-06-14 23:33:00,
2013-06-14 18:43:00,70.0,51.0,29.98,SSE,152,0.0,0.0,51,0.00,,,0.00,,2013-06-14 23:43:00,
2013-06-14 19:11:00,70.0,48.0,29.97,East,79,0.0,1.0,46,0.00,,,0.00,,2013-06-15 00:11:00,
2013-06-14 19:23:00,70.0,48.0,29.97,East,79,0.0,1.0,46,0.00,,,0.00,,2013-06-15 00:23:00,
2013-06-14 19:34:00,69.0,49.0,29.97,SE,128,0.0,1.0,49,0.00,,,0.00,,2013-06-15 00:34:00,
2013-06-14 19:43:00,67.0,53.0,29.97,SE,129,0.0,0.0,61,0.00,,,0.00,,2013-06-15 00:43:00,
2013-06-14 19:53:00,67.0,53.0,29.97,SE,129,0.0,0.0,61,0.00,,,0.00,,2013-06-15 00:53:00,
2013-06-14 20:01:00,67.0,53.0,29.97,SE,129,0.0,0.0,61,0.00,,,0.00,,2013-06-15 01:01:00,
2013-06-14 20:11:00,66.0,51.0,29.98,NNE,15,0.0,1.0,59,0.00,,,0.00,,2013-06-15 01:11:00,
2013-06-14 20:22:00,66.0,51.0,29.98,NNE,15,0.0,1.0,59,0.00,,,0.00,,2013-06-15 01:22:00,
2013-06-14 20:33:00,66.0,51.0,29.98,NNE,15,0.0,1.0,59,0.00,,,0.00,,2013-06-15 01:33:00,
2013-06-14 20:43:00,66.0,49.0,29.98,NW,325,0.0,1.0,55,0.00,,,0.00,,2013-06-15 01:43:00,
2013-06-14 20:54:00,64.0,51.0,29.98,NNW,331,0.0,1.0,63,0.00,,,0.00,,2013-06-15 01:54:00,
2013-06-14 21:02:00,63.0,52.0,29.99,North,9,0.0,0.0,67,0.00,,,0.00,,2013-06-15 02:02:00,
2013-06-14 21:11:00,63.0,52.0,29.99,North,9,0.0,0.0,67,0.00,,,0.00,,2013-06-15 02:11:00,
2013-06-14 21:22:00,61.0,50.0,29.99,ESE,118,0.0,1.0,68,0.00,,,0.00,,2013-06-15 02:22:00,
2013-06-14 21:33:00,60.0,50.0,29.99,ENE,76,0.0,1.0,69,0.00,,,0.00,,2013-06-15 02:33:00,
2013-06-14 21:43:00,60.0,50.0,30.00,ENE,77,0.0,0.0,70,0.00,,,0.00,,2013-06-15 02:43:00,
2013-06-14 21:53:00,60.0,50.0,30.00,ENE,77,0.0,0.0,70,0.00,,,0.00,,2013-06-15 02:53:00,
2013-06-14 22:01:00,60.0,47.0,29.99,East,82,0.0,1.0,63,0.00,,,0.00,,2013-06-15 03:01:00,
2013-06-14 22:11:00,60.0,47.0,29.99,NNW,345,0.0,1.0,61,0.00,,,0.00,,2013-06-15 03:11:00,
2013-06-14 22:24:00,60.0,47.0,29.99,NNW,345,0.0,1.0,61,0.00,,,0.00,,2013-06-15 03:24:00,
2013-06-14 22:32:00,60.0,50.0,29.98,NNW,345,0.0,1.0,70,0.00,,,0.00,,2013-06-15 03:32:00,
2013-06-14 22:44:00,59.0,49.0,29.99,NNW,345,0.0,1.0,70,0.00,,,0.00,,2013-06-15 03:44:00,
2013-06-14 22:52:00,59.0,49.0,29.99,NNW,345,0.0,1.0,70,0.00,,,0.00,,2013-06-15 03:52:00,
2013-06-14 23:02:00,58.0,49.0,29.98,NNW,345,0.0,0.0,71,0.00,,,0.00,,2013-06-15 04:02:00,
2013-06-14 23:12:00,58.0,49.0,29.97,NNW,345,0.0,0.0,72,0.00,,,0.00,,2013-06-15 04:12:00,
2013-06-14 23:22:00,58.0,49.0,29.97,NNW,345,0.0,0.0,72,0.00,,,0.00,,2013-06-15 04:22:00,
2013-06-14 23:34:00,57.0,49.0,29.98,NNW,345,0.0,0.0,75,0.00,,,0.00,,2013-06-15 04:34:00,
2013-06-14 23:43:00,57.0,50.0,29.98,NNW,345,0.0,0.0,77,0.00,,,0.00,,2013-06-15 04:43:00,
2013-06-14 23:53:00,57.0,50.0,29.98,NNW,345,0.0,0.0,77,0.00,,,0.00,,2013-06-15 04:53:00,